[Date Prev][Date Next][Thread Prev][Thread Next] - [Date Index][Thread Index][Author Index]
2 Line ISS Keps 12-19
- Subject: [sarex] 2 Line ISS Keps 12-19
- From: "Dave Larsen PhD" <doc@xxxxxxxxxxx>
- Date: Sun, 19 Dec 2004 04:00:29 -0800
ISS
1 25544U 98067A 04354.32408014 .00020651 00000-0 16199-3 0 3951
2 25544 51.6391 100.6909 0004388 119.1173 337.5470 15.71515984347401
----
Via the sarex mailing list at AMSAT.ORG courtesy of AMSAT-NA.
To unsubscribe, send "unsubscribe sarex" to Majordomo@amsat.org
AMSAT Home